Terug naar catalogus

FLOCK 4BE 2

ActiefWetenschapSSO
NORAD 60511·PAYLOAD·🇺🇸 United States

Gelanceerd Aug 16, 2024 vanaf Vandenberg Space Force Base

Loading…

Volgende Passages (komende 24 uur)

TLE

VersSource: Space-Track

Epoch: Sep 14, 2026, 04:37 UTC

1 60511U 24149AV  26257.19241788  .00087883  00000-0  88725-3 0  9992
2 60511  97.3776 347.7477 0003296 276.9236  83.1649 15.65062823116364

Volg FLOCK 4BE 2 in realtime met AllMySat

Download on the App Store